Terminal Aerodrome Forecast
Issued by NWS Glasgow, MT

Home | Current Version | Previous Version | Text Only | Print | Product List | Glossary On
Versions: 1 2 3 4 5 6 7 8 9 10 11 12 13
000
FTUS45 KGGW 062300
TAFGGW
TAF
KGGW 062329Z 0700/0724 34022KT P6SM BKN200
     FM070300 32013KT P6SM SCT200
     FM071800 32017KT P6SM BKN200=

USA.gov is the U.S. government's official web portal to all federal, state and local government web resources and services.